Location: Newark
(46.3833°N, 12.2833°E)
Time: 13:55:39
(UTC+00:00)

Envisat - Visible Passes

Search period start: 25 August 2019 00:00
Search period end: 04 September 2019 00:00
Orbit: 764 x 766 km, 98.1° (Epoch: 25 August)

Date Brightness Start Highest point End Pass type
(mag) Time Alt. Az. Time Alt. Az. Time Alt. Az.
25 Aug 6.0 18:52:17 10° WSW 18:55:00 14° W 18:57:43 10° NW visible
28 Aug 5.8 18:40:12 10° SW 18:43:37 18° W 18:47:02 10° NW visible
30 Aug 6.5 19:09:04 10° W 19:09:29 10° W 19:09:54 10° W visible
31 Aug 5.7 18:28:19 10° SW 18:32:14 22° W 18:36:11 10° NW visible
02 Sep 6.1 18:55:44 10° WSW 18:58:04 13° W 19:00:25 10° WNW visible
03 Sep 5.4 18:16:35 10° SSW 18:20:53 27° W 18:25:13 10° NW visible
